CFG6AW DTMB-LAKU

Flight info

Callsign CFG6AW
Flight time 1h 35m
Altitude 34000
Route SORAB1A SORAB DCT PAN DCT LONDI DCT CTF DCT RCA DCT CRN DCT ALIXI DCT LCC DCT ABADI P92 TRN M127 RINAV
Aircraft A321/M-SDE3FGHIRWY/LB1

Departure

Time 2026-04-23 12:15
Airport Monastir Habib Bourguiba International Airport (DTMB)

Arrival

Time 2026-04-23 13:51
Airport Kukës International Airport (LAKU)
Time Latitude Longitude Altitude Speed Heading
2026-04-23 11:38 35.76002 10.75376 17 ft 0 kts 343°
2026-04-23 12:05 35.75988 10.75381 17 ft 3 kts 343°
2026-04-23 12:06 35.75970 10.75388 19 ft 3 kts 343°
2026-04-23 12:06 35.75952 10.75394 18 ft 3 kts 323°
2026-04-23 12:06 35.75942 10.75416 21 ft 2 kts 258°
2026-04-23 12:07 35.75939 10.75399 19 ft 0 kts 258°
2026-04-23 12:10 35.75935 10.75382 17 ft 7 kts 251°
2026-04-23 12:10 35.75903 10.75293 18 ft 16 kts 249°
2026-04-23 12:11 35.75870 10.75160 17 ft 17 kts 253°
2026-04-23 12:11 35.75838 10.75023 18 ft 16 kts 253°
2026-04-23 12:11 35.75808 10.74900 19 ft 14 kts 253°
2026-04-23 12:11 35.75798 10.74781 17 ft 16 kts 269°
2026-04-23 12:12 35.75768 10.74627 17 ft 20 kts 253°
2026-04-23 12:12 35.75731 10.74469 17 ft 19 kts 253°
2026-04-23 12:12 35.75694 10.74316 17 ft 18 kts 253°
2026-04-23 12:12 35.75661 10.74174 17 ft 17 kts 253°
2026-04-23 12:13 35.75629 10.74044 17 ft 15 kts 253°
2026-04-23 12:13 35.75601 10.73923 17 ft 14 kts 254°
2026-04-23 12:13 35.75563 10.73824 17 ft 12 kts 220°
2026-04-23 12:13 35.75493 10.73820 17 ft 9 kts 167°
2026-04-23 12:14 35.75435 10.73839 17 ft 8 kts 150°
2026-04-23 12:14 35.75447 10.74007 16 ft 43 kts 71°
2026-04-23 12:14 35.75598 10.74626 19 ft 105 kts 73°
2026-04-23 12:14 35.75855 10.75689 16 ft 152 kts 72°
2026-04-23 12:15 35.76175 10.77029 328 ft 162 kts 71°
2026-04-23 12:15 35.76669 10.78172 983 ft 145 kts 52°
2026-04-23 12:15 35.77239 10.79179 1427 ft 151 kts 53°
2026-04-23 12:15 35.77824 10.80356 1734 ft 165 kts 57°
2026-04-23 12:16 35.78419 10.81559 2177 ft 166 kts 56°
2026-04-23 12:16 35.78875 10.82870 2482 ft 177 kts 84°
2026-04-23 12:16 35.78395 10.84319 2628 ft 200 kts 132°
2026-04-23 12:16 35.77236 10.85358 2779 ft 210 kts 137°
2026-04-23 12:17 35.76503 10.86845 2905 ft 205 kts 94°
2026-04-23 12:17 35.76841 10.88483 3038 ft 202 kts 50°
2026-04-23 12:17 35.77923 10.89597 3175 ft 206 kts 35°
2026-04-23 12:17 35.79046 10.90720 3293 ft 211 kts 44°
2026-04-23 12:18 35.79989 10.92119 3446 ft 209 kts 50°
2026-04-23 12:18 35.80809 10.93515 3549 ft 197 kts 52°
2026-04-23 12:18 35.81617 10.94925 3667 ft 206 kts 52°
2026-04-23 12:18 35.82474 10.96408 3789 ft 218 kts 52°
2026-04-23 12:19 35.83396 10.97988 3893 ft 236 kts 51°
2026-04-23 12:19 35.84396 10.99689 4066 ft 252 kts 52°
2026-04-23 12:19 35.85436 11.01456 4441 ft 258 kts 51°
2026-04-23 12:19 35.86503 11.03263 4881 ft 262 kts 51°
2026-04-23 12:20 35.87584 11.05089 5305 ft 265 kts 51°
2026-04-23 12:20 35.88679 11.06936 5710 ft 269 kts 50°
2026-04-23 12:20 35.89791 11.08809 6101 ft 272 kts 50°
2026-04-23 12:20 35.90916 11.10698 6516 ft 275 kts 50°
2026-04-23 12:21 35.92053 11.12610 6908 ft 277 kts 50°
2026-04-23 12:21 35.93182 11.14510 7285 ft 279 kts 50°
2026-04-23 12:21 35.94332 11.16449 7683 ft 281 kts 49°
2026-04-23 12:21 35.95489 11.18397 8074 ft 282 kts 50°
2026-04-23 12:22 35.96652 11.20359 8470 ft 284 kts 49°
2026-04-23 12:22 35.97821 11.22335 8870 ft 286 kts 49°
2026-04-23 12:22 35.99001 11.24331 9211 ft 289 kts 49°
2026-04-23 12:22 36.00192 11.26347 9590 ft 291 kts 49°
2026-04-23 12:23 36.01385 11.28366 9955 ft 293 kts 49°
2026-04-23 12:23 36.02594 11.30410 10248 ft 296 kts 49°
2026-04-23 12:23 36.03414 11.31782 10322 ft 302 kts 46°
2026-04-23 12:23 36.04856 11.33734 10447 ft 306 kts 38°
2026-04-23 12:24 36.06526 11.35379 10570 ft 309 kts 28°
2026-04-23 12:24 36.08345 11.36828 10690 ft 314 kts 28°
2026-04-23 12:24 36.10193 11.38308 10819 ft 319 kts 28°
2026-04-23 12:24 36.12064 11.39820 10991 ft 322 kts 28°
2026-04-23 12:25 36.13943 11.41349 11194 ft 324 kts 28°
2026-04-23 12:25 36.15829 11.42884 11405 ft 325 kts 28°
2026-04-23 12:25 36.17721 11.44420 11624 ft 326 kts 28°
2026-04-23 12:25 36.19618 11.45958 11843 ft 327 kts 28°
2026-04-23 12:26 36.21498 11.47485 12042 ft 328 kts 28°
2026-04-23 12:26 36.23436 11.49061 12239 ft 330 kts 28°
2026-04-23 12:26 36.25358 11.50624 12438 ft 331 kts 28°
2026-04-23 12:26 36.27259 11.52168 12628 ft 332 kts 28°
2026-04-23 12:27 36.29194 11.53740 12828 ft 333 kts 28°
2026-04-23 12:27 36.31135 11.55314 13013 ft 333 kts 28°
2026-04-23 12:27 36.33081 11.56891 13219 ft 334 kts 28°
2026-04-23 12:27 36.35026 11.58472 13401 ft 335 kts 28°
2026-04-23 12:28 36.36980 11.60066 13600 ft 336 kts 28°
2026-04-23 12:28 36.38937 11.61665 13771 ft 337 kts 28°
2026-04-23 12:28 36.40899 11.63270 13930 ft 338 kts 28°
2026-04-23 12:28 36.42867 11.64881 14083 ft 339 kts 28°
2026-04-23 12:29 36.44838 11.66493 14238 ft 340 kts 28°
2026-04-23 12:29 36.46815 11.68108 14404 ft 341 kts 28°
2026-04-23 12:29 36.48802 11.69730 14513 ft 342 kts 28°
2026-04-23 12:29 36.50800 11.71362 14651 ft 344 kts 28°
2026-04-23 12:30 36.52800 11.73001 14769 ft 345 kts 28°
2026-04-23 12:30 36.54803 11.74644 14912 ft 345 kts 28°
2026-04-23 12:30 36.56808 11.76286 15044 ft 346 kts 28°
2026-04-23 12:30 36.58818 11.77932 15154 ft 346 kts 28°
2026-04-23 12:31 36.60837 11.79586 15291 ft 347 kts 28°
2026-04-23 12:31 36.62853 11.81239 15404 ft 348 kts 28°
2026-04-23 12:31 36.64811 11.82847 15524 ft 348 kts 28°
2026-04-23 12:31 36.66896 11.84564 15661 ft 349 kts 28°
2026-04-23 12:32 36.68922 11.86235 15778 ft 349 kts 28°
2026-04-23 12:32 36.70946 11.87904 15893 ft 349 kts 28°
2026-04-23 12:32 36.72950 11.89557 16028 ft 349 kts 28°
2026-04-23 12:32 36.75004 11.91251 16141 ft 350 kts 28°
2026-04-23 12:33 36.77005 11.92906 16275 ft 350 kts 28°
2026-04-23 12:33 36.79020 11.94608 16400 ft 352 kts 31°
2026-04-23 12:33 36.80872 11.96642 16528 ft 358 kts 40°
2026-04-23 12:33 36.82460 11.99060 16653 ft 363 kts 50°
2026-04-23 12:34 36.83754 12.01797 16782 ft 367 kts 56°
2026-04-23 12:34 36.84974 12.04593 16918 ft 367 kts 56°
2026-04-23 12:34 36.86202 12.07389 17068 ft 367 kts 55°
2026-04-23 12:34 36.87435 12.10183 17199 ft 368 kts 55°
2026-04-23 12:35 36.88670 12.12984 17330 ft 368 kts 55°
2026-04-23 12:35 36.89907 12.15791 17472 ft 368 kts 55°
2026-04-23 12:35 36.91143 12.18597 17593 ft 369 kts 55°
2026-04-23 12:35 36.92377 12.21404 17729 ft 369 kts 55°
2026-04-23 12:36 36.93611 12.24216 17860 ft 369 kts 55°
2026-04-23 12:36 36.94847 12.27035 17987 ft 370 kts 55°
2026-04-23 12:36 36.96079 12.29852 18128 ft 370 kts 55°
2026-04-23 12:36 36.97283 12.32618 18755 ft 351 kts 55°
2026-04-23 12:37 36.98401 12.35216 19563 ft 330 kts 54°
2026-04-23 12:37 36.99480 12.37714 20086 ft 325 kts 54°
2026-04-23 12:37 37.00592 12.40249 20265 ft 340 kts 54°
2026-04-23 12:37 37.01762 12.42887 20411 ft 355 kts 54°
2026-04-23 12:38 37.02984 12.45649 20539 ft 370 kts 54°
2026-04-23 12:38 37.04250 12.48529 20666 ft 384 kts 55°
2026-04-23 12:38 37.05558 12.51520 20808 ft 398 kts 55°
2026-04-23 12:38 37.06903 12.54616 20941 ft 411 kts 56°
2026-04-23 12:39 37.08285 12.57809 21065 ft 423 kts 56°
2026-04-23 12:39 37.09705 12.61094 21174 ft 435 kts 56°
2026-04-23 12:39 37.11160 12.64471 21330 ft 445 kts 56°
2026-04-23 12:39 37.12637 12.67905 21638 ft 450 kts 56°
2026-04-23 12:40 37.14124 12.71369 22019 ft 453 kts 56°
2026-04-23 12:40 37.15622 12.74861 22412 ft 456 kts 56°
2026-04-23 12:40 37.17134 12.78381 22820 ft 459 kts 56°
2026-04-23 12:40 37.18658 12.81918 23180 ft 463 kts 56°
2026-04-23 12:41 37.20197 12.85484 23557 ft 466 kts 56°
2026-04-23 12:41 37.21744 12.89067 23880 ft 469 kts 56°
2026-04-23 12:41 37.23297 12.92676 24211 ft 471 kts 56°
2026-04-23 12:41 37.24851 12.96299 24569 ft 473 kts 56°
2026-04-23 12:42 37.26413 12.99949 24897 ft 475 kts 56°
2026-04-23 12:42 37.27980 13.03618 25224 ft 477 kts 56°
2026-04-23 12:42 37.29549 13.07300 25534 ft 480 kts 56°
2026-04-23 12:42 37.31126 13.11006 25843 ft 482 kts 55°
2026-04-23 12:43 37.32695 13.14735 26148 ft 486 kts 58°
2026-04-23 12:43 37.33968 13.18701 26419 ft 495 kts 67°
2026-04-23 12:43 37.34781 13.22944 26706 ft 505 kts 76°
2026-04-23 12:43 37.35155 13.27365 26993 ft 510 kts 81°
2026-04-23 12:44 37.35462 13.31810 27288 ft 512 kts 80°
2026-04-23 12:44 37.35775 13.36279 27568 ft 514 kts 80°
2026-04-23 12:44 37.36091 13.40759 27857 ft 516 kts 80°
2026-04-23 12:44 37.36405 13.45260 28236 ft 516 kts 80°
2026-04-23 12:45 37.36717 13.49750 28676 ft 515 kts 80°
2026-04-23 12:45 37.37027 13.54231 29071 ft 515 kts 80°
2026-04-23 12:45 37.37330 13.58670 29441 ft 515 kts 80°
2026-04-23 12:45 37.37633 13.63149 29816 ft 514 kts 80°
2026-04-23 12:46 37.37934 13.67626 30181 ft 514 kts 80°
2026-04-23 12:46 37.38232 13.72103 30491 ft 514 kts 80°
2026-04-23 12:46 37.38535 13.76640 30850 ft 513 kts 79°
2026-04-23 12:46 37.38834 13.81112 31122 ft 515 kts 79°
2026-04-23 12:47 37.39127 13.85545 31424 ft 515 kts 79°
2026-04-23 12:47 37.39428 13.90085 31795 ft 515 kts 80°
2026-04-23 12:47 37.39722 13.94565 32156 ft 514 kts 80°
2026-04-23 12:47 37.40011 13.99046 32494 ft 513 kts 80°
2026-04-23 12:48 37.40298 14.03515 32829 ft 513 kts 80°
2026-04-23 12:48 37.40585 14.07991 33038 ft 513 kts 79°
2026-04-23 12:48 37.41154 14.16940 33075 ft 513 kts 80°
2026-04-23 12:49 37.41707 14.25873 33081 ft 513 kts 80°
2026-04-23 12:49 37.42261 14.34817 33079 ft 513 kts 80°
2026-04-23 12:50 37.42808 14.43773 33080 ft 513 kts 80°
2026-04-23 12:50 37.43355 14.52723 33095 ft 513 kts 80°
2026-04-23 12:51 37.43891 14.61681 33101 ft 513 kts 80°
2026-04-23 12:51 37.44420 14.70640 33106 ft 513 kts 80°
2026-04-23 12:52 37.44944 14.79545 33110 ft 514 kts 80°
2026-04-23 12:52 37.45459 14.88577 33111 ft 514 kts 81°
2026-04-23 12:53 37.46215 14.97411 33105 ft 506 kts 70°
2026-04-23 12:53 37.48729 15.05475 33087 ft 487 kts 51°
2026-04-23 12:54 37.52835 15.12026 33084 ft 467 kts 34°
2026-04-23 12:54 37.57874 15.17007 33085 ft 459 kts 27°
2026-04-23 12:55 37.62988 15.21829 33087 ft 459 kts 28°
2026-04-23 12:55 37.68094 15.26682 33087 ft 460 kts 28°
2026-04-23 12:56 37.73209 15.31555 33086 ft 462 kts 28°
2026-04-23 12:56 37.78347 15.36449 33090 ft 463 kts 28°
2026-04-23 12:57 37.83485 15.41350 33087 ft 463 kts 28°
2026-04-23 12:57 37.88625 15.46265 33090 ft 463 kts 28°
2026-04-23 12:58 37.93767 15.51186 33082 ft 463 kts 28°
2026-04-23 12:58 37.98911 15.56115 33085 ft 463 kts 28°
2026-04-23 12:59 38.04048 15.61055 33085 ft 463 kts 28°
2026-04-23 12:59 38.08949 15.66486 33076 ft 479 kts 40°
2026-04-23 13:00 38.13232 15.73051 33084 ft 483 kts 41°
2026-04-23 13:00 38.17494 15.79591 33084 ft 484 kts 41°
2026-04-23 13:01 38.21776 15.86167 33082 ft 484 kts 41°
2026-04-23 13:01 38.26060 15.92775 33121 ft 484 kts 41°
2026-04-23 13:02 38.30333 15.99383 33078 ft 483 kts 41°
2026-04-23 13:02 38.34607 16.05997 33077 ft 484 kts 42°
2026-04-23 13:03 38.38882 16.12619 33068 ft 484 kts 42°
2026-04-23 13:03 38.43159 16.19258 33067 ft 484 kts 42°
2026-04-23 13:04 38.47418 16.25895 33058 ft 483 kts 42°
2026-04-23 13:04 38.51669 16.32539 33064 ft 482 kts 42°
2026-04-23 13:05 38.55197 16.38047 33062 ft 483 kts 43°
2026-04-23 13:05 38.59447 16.44707 33053 ft 484 kts 43°
2026-04-23 13:06 38.65810 16.54696 33052 ft 481 kts 44°
2026-04-23 13:07 38.70037 16.61344 33054 ft 481 kts 44°
2026-04-23 13:07 38.74189 16.67891 33051 ft 481 kts 44°
2026-04-23 13:08 38.78464 16.74648 33049 ft 482 kts 44°
2026-04-23 13:08 38.82686 16.81348 33051 ft 482 kts 45°
2026-04-23 13:09 38.86880 16.88024 33056 ft 480 kts 45°
2026-04-23 13:09 38.91071 16.94692 33058 ft 480 kts 45°
2026-04-23 13:10 38.95269 17.01365 33057 ft 480 kts 45°
2026-04-23 13:10 38.99660 17.07750 33066 ft 472 kts 36°
2026-04-23 13:11 39.04983 17.12512 33058 ft 463 kts 25°
2026-04-23 13:11 39.10484 17.16805 33059 ft 463 kts 25°
2026-04-23 13:12 39.15985 17.21136 33065 ft 463 kts 25°
2026-04-23 13:12 39.21437 17.25445 33053 ft 462 kts 27°
2026-04-23 13:13 39.26911 17.29772 33075 ft 461 kts 27°
2026-04-23 13:13 39.32380 17.34096 33078 ft 461 kts 27°
2026-04-23 13:14 39.37855 17.38427 33070 ft 461 kts 27°
2026-04-23 13:14 39.43323 17.42759 33073 ft 463 kts 26°
2026-04-23 13:15 39.48790 17.47197 33066 ft 465 kts 28°
2026-04-23 13:15 39.54180 17.51841 33067 ft 465 kts 29°
2026-04-23 13:16 39.59538 17.56522 33069 ft 463 kts 30°
2026-04-23 13:16 39.64886 17.61133 33065 ft 461 kts 29°
2026-04-23 13:17 39.70244 17.65714 33066 ft 461 kts 29°
2026-04-23 13:17 39.75558 17.70279 33068 ft 461 kts 30°
2026-04-23 13:18 39.80857 17.74855 33068 ft 457 kts 30°
2026-04-23 13:18 39.86169 17.79453 33062 ft 457 kts 30°
2026-04-23 13:19 39.91464 17.84053 33064 ft 458 kts 30°
2026-04-23 13:19 39.96761 17.88656 33058 ft 456 kts 31°
2026-04-23 13:20 40.02017 17.93219 33053 ft 453 kts 31°
2026-04-23 13:20 40.07261 17.97779 33063 ft 452 kts 31°
2026-04-23 13:21 40.12496 18.02344 33053 ft 452 kts 31°
2026-04-23 13:21 40.17701 18.06899 33064 ft 447 kts 31°
2026-04-23 13:22 40.22810 18.11387 33058 ft 445 kts 31°
2026-04-23 13:22 40.27894 18.16021 33055 ft 446 kts 34°
2026-04-23 13:23 40.32821 18.20976 33057 ft 446 kts 36°
2026-04-23 13:23 40.37672 18.25978 33055 ft 442 kts 36°
2026-04-23 13:24 40.42536 18.30902 33061 ft 441 kts 36°
2026-04-23 13:24 40.47425 18.35789 33066 ft 441 kts 36°
2026-04-23 13:25 40.52303 18.40670 33071 ft 438 kts 37°
2026-04-23 13:25 40.57126 18.45524 33067 ft 437 kts 36°
2026-04-23 13:26 40.61944 18.50396 33066 ft 437 kts 37°
2026-04-23 13:26 40.66760 18.55271 33074 ft 437 kts 37°
2026-04-23 13:27 40.71565 18.60134 33056 ft 433 kts 38°
2026-04-23 13:27 40.75921 18.65510 33063 ft 432 kts 52°
2026-04-23 13:28 40.79090 18.72246 33057 ft 433 kts 59°
2026-04-23 13:28 40.82120 18.79118 33064 ft 433 kts 58°
2026-04-23 13:29 40.85152 18.86004 32772 ft 430 kts 59°
2026-04-23 13:29 40.86642 18.89403 32509 ft 427 kts 59°
2026-04-23 13:29 40.88130 18.92792 32254 ft 425 kts 59°
2026-04-23 13:29 40.89792 18.95997 31998 ft 423 kts 51°
2026-04-23 13:30 40.91762 18.98895 31731 ft 422 kts 48°
2026-04-23 13:30 40.93750 19.01753 31469 ft 421 kts 48°
2026-04-23 13:30 40.95722 19.04606 31119 ft 420 kts 49°
2026-04-23 13:30 40.97703 19.07488 30136 ft 426 kts 49°
2026-04-23 13:31 40.99699 19.10397 29090 ft 428 kts 49°
2026-04-23 13:31 41.01703 19.13319 28087 ft 427 kts 50°
2026-04-23 13:31 41.03698 19.16224 27077 ft 428 kts 50°
2026-04-23 13:31 41.05706 19.19149 25998 ft 430 kts 49°
2026-04-23 13:32 41.07729 19.22096 25070 ft 430 kts 49°
2026-04-23 13:32 41.09723 19.24991 24442 ft 424 kts 49°
2026-04-23 13:32 41.11708 19.27872 23728 ft 420 kts 49°
2026-04-23 13:32 41.13667 19.30725 22951 ft 416 kts 49°
2026-04-23 13:33 41.15596 19.33542 22308 ft 409 kts 49°
2026-04-23 13:33 41.17489 19.36311 21682 ft 402 kts 49°
2026-04-23 13:33 41.19349 19.39034 21078 ft 396 kts 49°
2026-04-23 13:33 41.21193 19.41732 20468 ft 391 kts 49°
2026-04-23 13:34 41.23005 19.44389 19901 ft 385 kts 48°
2026-04-23 13:34 41.24789 19.47009 19343 ft 380 kts 48°
2026-04-23 13:34 41.26552 19.49600 18795 ft 376 kts 48°
2026-04-23 13:34 41.28300 19.52169 18255 ft 372 kts 48°
2026-04-23 13:35 41.30030 19.54712 17703 ft 369 kts 47°
2026-04-23 13:35 41.31743 19.57238 17214 ft 367 kts 47°
2026-04-23 13:35 41.33446 19.59754 16745 ft 364 kts 48°
2026-04-23 13:35 41.35133 19.62245 16279 ft 361 kts 48°
2026-04-23 13:36 41.36802 19.64706 15831 ft 358 kts 48°
2026-04-23 13:36 41.38475 19.67170 15370 ft 356 kts 48°
2026-04-23 13:36 41.40126 19.69608 14898 ft 353 kts 48°
2026-04-23 13:36 41.41770 19.72043 14449 ft 352 kts 48°
2026-04-23 13:37 41.43402 19.74456 14002 ft 349 kts 47°
2026-04-23 13:37 41.44267 19.75726 13746 ft 348 kts 47°
2026-04-23 13:37 41.45838 19.78024 13273 ft 347 kts 47°
2026-04-23 13:37 41.47459 19.80393 12786 ft 344 kts 47°
2026-04-23 13:38 41.49076 19.82756 12311 ft 346 kts 47°
2026-04-23 13:38 41.50695 19.85123 11797 ft 345 kts 47°
2026-04-23 13:38 41.52304 19.87482 11286 ft 342 kts 47°
2026-04-23 13:38 41.53883 19.89803 11037 ft 331 kts 47°
2026-04-23 13:39 41.55397 19.92037 10912 ft 319 kts 47°
2026-04-23 13:39 41.56861 19.94197 10768 ft 307 kts 47°
2026-04-23 13:39 41.58269 19.96273 10658 ft 296 kts 48°
2026-04-23 13:39 41.59627 19.98278 10529 ft 285 kts 48°
2026-04-23 13:40 41.60946 20.00229 10292 ft 280 kts 48°
2026-04-23 13:40 41.62248 20.02152 10040 ft 278 kts 47°
2026-04-23 13:40 41.63542 20.04058 9850 ft 276 kts 47°
2026-04-23 13:40 41.64836 20.05968 9713 ft 278 kts 48°
2026-04-23 13:41 41.66129 20.07885 9585 ft 278 kts 48°
2026-04-23 13:41 41.67419 20.09795 9438 ft 275 kts 48°
2026-04-23 13:41 41.68709 20.11702 9235 ft 276 kts 48°
2026-04-23 13:41 41.69992 20.13602 8883 ft 274 kts 48°
2026-04-23 13:42 41.71265 20.15493 8540 ft 273 kts 47°
2026-04-23 13:42 41.72536 20.17384 8176 ft 273 kts 47°
2026-04-23 13:42 41.73787 20.19240 7828 ft 262 kts 47°
2026-04-23 13:42 41.74973 20.21001 7494 ft 247 kts 47°
2026-04-23 13:43 41.76078 20.22643 7201 ft 231 kts 47°
2026-04-23 13:43 41.77136 20.24218 6881 ft 220 kts 48°
2026-04-23 13:43 41.78149 20.25731 6596 ft 217 kts 47°
2026-04-23 13:43 41.79140 20.27208 6325 ft 208 kts 47°
2026-04-23 13:44 41.80065 20.28587 6063 ft 187 kts 47°
2026-04-23 13:44 41.80871 20.29790 5827 ft 160 kts 46°
2026-04-23 13:44 41.81591 20.30865 5604 ft 150 kts 45°
2026-04-23 13:44 41.82279 20.31889 5411 ft 147 kts 45°
2026-04-23 13:45 41.82730 20.32561 5291 ft 145 kts 45°
2026-04-23 13:45 41.83642 20.33919 5030 ft 146 kts 46°
2026-04-23 13:45 41.84310 20.34914 4832 ft 143 kts 45°
2026-04-23 13:45 41.85048 20.35767 4655 ft 142 kts 29°
2026-04-23 13:46 41.85992 20.36188 4497 ft 145 kts 12°
2026-04-23 13:46 41.86989 20.36374 4410 ft 145 kts 11°
2026-04-23 13:46 41.87970 20.36645 4272 ft 143 kts 15°
2026-04-23 13:46 41.88937 20.36951 3955 ft 143 kts 16°
2026-04-23 13:47 41.89912 20.37287 3524 ft 144 kts 14°
2026-04-23 13:47 41.90884 20.37594 3215 ft 142 kts 12°
2026-04-23 13:47 41.91844 20.37904 3003 ft 140 kts 14°
2026-04-23 13:47 41.92797 20.38212 2888 ft 144 kts 14°
2026-04-23 13:48 41.93764 20.38553 2922 ft 142 kts 15°
2026-04-23 13:48 41.94386 20.38794 2915 ft 141 kts 13°
2026-04-23 13:48 41.95334 20.39130 2865 ft 139 kts 15°
2026-04-23 13:48 41.96277 20.39468 2707 ft 139 kts 15°
2026-04-23 13:49 41.97206 20.39821 2597 ft 137 kts 17°
2026-04-23 13:49 41.98158 20.40090 2465 ft 143 kts
2026-04-23 13:49 41.99137 20.40311 2125 ft 141 kts 10°
2026-04-23 13:49 42.00088 20.40556 1847 ft 138 kts 12°
2026-04-23 13:50 42.01026 20.40815 1607 ft 138 kts 15°
2026-04-23 13:50 42.01962 20.41085 1362 ft 138 kts 14°
2026-04-23 13:50 42.02889 20.41375 1200 ft 135 kts 14°
2026-04-23 13:50 42.03690 20.41629 1194 ft 76 kts 12°
2026-04-23 13:51 42.04035 20.41733 1194 ft 34 kts 13°
2026-04-23 13:51 42.04250 20.41807 1194 ft 19 kts 31°
2026-04-23 13:51 42.04323 20.41869 1194 ft 11 kts 334°
2026-04-23 13:51 42.04302 20.41813 1194 ft 12 kts 205°
2026-04-23 13:52 42.04138 20.41759 1194 ft 36 kts 193°
2026-04-23 13:52 42.03821 20.41664 1193 ft 54 kts 192°
2026-04-23 13:52 42.03628 20.41617 1192 ft 12 kts 153°
2026-04-23 13:52 42.03593 20.41702 1191 ft 10 kts 120°
2026-04-23 13:53 42.03538 20.41724 1193 ft 8 kts 187°
2026-04-23 13:53 42.03498 20.41714 1193 ft 2 kts 187°
2026-04-23 13:53 42.03482 20.41724 1192 ft 6 kts 141°
2026-04-23 13:53 42.03468 20.41764 1193 ft 3 kts 105°
2026-04-23 13:54 42.03467 20.41772 1193 ft 0 kts 105°